Find Starlink 36597

NORAD ID: 67613 Int'l Des: 2026-018 Owner: SPXS Country: US Constellation: starlink operational
LEOCIRCULARRETROGRADE

Current View

Loading 3D Globe...

About Starlink 36597

Description loading...

Upcoming Passes

Passes for default location (London). Set your location on the main map for personalized predictions.

Altitude History

Loading altitude history...

Two-Line Element Set

1 67613U 26018AA 26146.14942983 .00017982 00000-0 55915-3 0 9994
2 67613 97.2842 211.2429 0000460 311.1457 48.9746 15.33378365 19204
Epoch: May 26, 2026 • Age: 15 hours

Current Status

Altitude 492.6 km
Velocity 7.62 km/s
Sub-Earth Point -74.34°S, 161.37°W
Launch Date Jan 29, 2026
Age 0.3 years
Type internet

Technical Details

Classification Payload
Mass 575.00 kg
Dry Mass 530.00 kg
Total Mass 575.00 kg
Length 0.30 m
Diameter 4.10 m
Span 29.00 m
Shape Box + pan
Manufacturer SPXS
Bus Type Starlink V2MO
Phase Status In Orbit
Owner/State SPXS/US

Most Searched